Location: Newark
(43.6583°N, 1.6617°E)
Time: 16:12:55
(UTC+00:00)

Vanguard 1 Rocket - Pass Details

Date: 26 August 2019
Orbit: 652 x 4225 km, 34.3° (Epoch: 15 September)

Event Time Altitude Azimuth Distance (km) Brightness Sun altitude
Rises 00:31:18 0° 220° (SW) 3,275 - -35.2°
Reaches altitude 10° 00:34:48 10° 197° (SSW) 2,124 - -35.0°
Maximum altitude 00:37:28 15° 161° (SSE) 1,724 - -34.9°
Drops below altitude 10° 00:40:05 10° 123° (ESE) 2,065 - -34.8°
Sets 00:43:23 0° 100° (E) 3,128 - -34.7°
